COSMOS 2514 (751)

Last updated on Mon Sep 21 2026 00:03:22 GMT+0000 (Coordinated Universal Time)

1 41330U 16008A 26263.07573633 -.00000022 00000+0 00000+0 0 9992 2 41330 64.9604 309.7448 0013739 210.9403 149.0511 2.13102852 82644
UTC large
Height (km)
Speed (km/s)
/
Latitude / Longitude
Inclination (degrees)
Orbital Period (minutes)
Azimuth
Elevation
Range (km)
Doppler Factor

Next 0 passes for location: London (51.5072 / 0.1276)

No passes found over London.
COSMOS 2514 (751)